Wind_Speed
12 11 11 10 13 15 13 12 13 14 13 13 11 10 11 11 10 9 10 9 8 10 10 11 11 12 12 11 10 10 8 7 7 6 5 4 3 3 3 3 4 4 3 3 3 3 3 3 3
11 10 10 10 14 15 12 14 15 15 15 13 12 11 12 11 10 10 11 10 9 10 11 11 12 13 13 13 12 11 9 9 9 7 6 4 3 3 3 3 3 3 3 3 3 3 3 3 3
10 9 10 11 14 12 11 14 15 16 15 14 13 12 12 12 11 11 11 11 10 10 11 12 12 13 13 13 12 11 10 10 9 8 6 5 4 3 3 2 3 3 2 2 2 3 3 3 3
8 8 9 12 11 7 11 13 14 15 15 14 14 12 10 11 12 11 11 11 10 10 11 12 12 13 14 13 13 12 11 10 10 8 7 6 5 3 3 2 2 2 2 2 2 2 2 3 3
7 7 11 11 6 7 12 14 14 14 15 15 15 14 13 12 13 12 12 11 10 10 10 11 12 14 14 14 13 13 12 12 11 10 8 6 5 4 3 3 2 2 2 2 2 2 2 2 2
5 8 10 7 4 9 13 15 14 14 15 15 15 16 15 14 14 14 13 12 10 9 10 11 12 14 15 15 15 14 14 13 12 11 9 8 6 5 4 3 2 2 2 2 2 2 2 2 2
5 6 7 5 5 9 13 13 13 14 15 15 16 17 15 14 15 15 14 13 11 10 10 12 13 14 15 16 16 16 15 15 14 12 11 9 8 6 5 4 3 2 2 2 2 2 1 2 2
5 5 4 4 4 9 12 13 14 14 15 16 16 17 16 16 17 16 15 14 13 10 11 12 14 15 16 16 17 17 16 16 15 13 12 10 9 7 6 5 4 3 2 2 2 1 1 1 2
4 4 4 3 4 9 12 12 13 15 15 17 17 19 17 19 18 18 16 15 14 12 12 13 14 16 16 17 17 18 18 17 15 14 12 11 9 8 7 6 5 4 4 3 2 2 1 2 2
2 3 3 3 9 11 12 13 14 14 16 19 20 20 19 20 20 19 17 16 14 14 14 14 15 16 17 17 18 18 19 18 16 15 13 11 10 9 8 7 5 5 4 3 2 2 2 2 2
3 2 4 7 11 12 11 12 13 14 16 19 22 22 21 21 21 20 18 17 15 15 15 14 15 16 18 19 19 19 20 19 17 16 14 12 11 9 8 6 5 5 4 4 3 2 2 2 3
7 5 7 9 11 11 11 11 11 13 16 19 21 23 23 23 23 21 19 17 16 16 16 15 15 17 18 19 19 20 20 18 17 17 14 13 11 10 8 6 5 5 4 3 3 2 2 2 2
8 8 8 10 11 11 12 12 14 13 14 20 22 23 24 23 23 21 18 16 15 16 16 16 16 18 18 19 20 20 21 19 16 16 14 12 11 10 8 7 6 5 4 3 3 2 2 2 1
8 9 10 10 9 10 12 13 16 15 15 20 23 22 23 23 23 21 18 16 15 15 16 16 16 16 17 18 20 20 20 19 16 14 13 11 10 9 8 7 6 5 4 4 3 3 2 2 1
8 8 9 9 8 9 13 14 18 17 18 21 23 23 23 23 21 19 17 16 15 15 15 15 14 16 18 18 18 19 19 18 17 15 13 11 10 9 7 7 6 5 4 4 3 3 2 2 2
8 9 9 9 9 11 14 16 18 18 19 22 23 23 22 22 21 18 17 16 15 14 14 13 13 15 17 19 18 18 18 17 16 15 13 11 10 9 8 7 6 5 5 4 3 3 2 2 2
8 10 10 11 11 11 14 16 17 18 19 22 23 23 22 21 20 18 16 16 14 13 13 13 12 14 18 18 18 17 17 18 17 15 13 12 10 9 8 7 6 6 5 4 4 3 3 2 2
8 9 13 12 12 14 15 17 16 18 20 22 23 23 23 21 20 16 15 14 12 10 10 10 10 11 16 18 18 16 17 18 17 16 14 12 11 10 9 7 7 7 6 5 4 4 3 3 2
12 13 14 13 15 16 16 17 17 17 19 20 21 22 22 21 19 16 15 13 10 8 9 9 9 10 15 18 18 17 17 16 17 16 15 13 12 10 10 9 8 8 7 6 5 4 3 3 2
15 15 15 16 16 16 16 17 17 18 17 19 20 22 21 20 18 16 15 13 10 8 8 9 9 10 14 15 17 17 17 16 16 15 15 14 13 11 10 10 9 9 8 7 6 5 4 3 2
16 15 15 16 16 15 16 17 17 18 18 18 17 18 20 19 17 16 15 13 10 8 8 8 9 10 13 14 16 16 16 16 15 15 15 15 14 13 11 10 10 10 9 8 7 6 5 4 3
16 14 15 16 17 16 16 18 18 19 19 17 16 17 17 17 17 16 15 13 10 9 8 8 9 11 12 14 15 16 16 16 15 15 15 15 15 14 13 11 11 10 9 9 8 7 6 5 5
16 15 16 17 17 17 16 16 16 19 19 16 17 20 17 17 17 16 15 13 11 9 8 8 8 11 12 14 15 16 16 16 16 16 16 16 15 15 14 13 12 11 10 10 9 8 8 7 6
16 16 16 16 15 15 14 15 15 17 19 18 19 21 19 18 16 15 14 13 11 9 8 7 8 10 12 14 15 16 17 17 16 16 17 17 16 15 15 14 13 12 12 12 11 10 10 9 8
16 16 14 13 15 16 16 15 12 16 16 18 20 20 18 17 16 14 13 12 11 10 8 6 7 9 11 13 15 15 17 17 17 17 16 16 16 15 14 14 14 14 14 13 12 12 12 11 11
16 16 15 15 18 21 20 15 11 15 14 16 18 18 18 16 15 13 13 13 11 9 7 5 6 7 9 12 14 15 15 16 16 16 16 16 15 15 15 15 14 14 15 14 14 14 14 14 14
16 17 15 17 19 22 22 16 9 11 13 14 15 16 17 16 14 13 12 11 10 8 6 5 5 7 9 10 13 14 15 16 16 16 16 16 16 15 15 15 15 15 15 16 16 15 15 16 16
16 16 16 19 20 19 18 19 16 10 10 13 14 16 16 14 13 12 11 10 10 8 6 4 4 5 8 10 12 14 15 16 15 16 15 15 16 16 16 16 16 16 16 16 17 17 17 18 18
15 16 18 18 18 19 19 21 20 14 11 10 13 15 15 15 13 11 10 9 8 8 7 4 3 4 6 8 11 12 13 15 15 15 16 16 17 16 17 16 16 16 16 16 17 18 18 19 20
15 16 17 19 19 19 19 22 18 10 8 10 13 16 16 14 13 11 9 9 8 7 6 4 3 2 4 6 8 10 12 14 16 15 15 16 16 16 16 16 16 16 17 17 18 18 19 20 21
Wind_Direction
47 48 50 48 40 37 29 356 343 346 348 348 343 334 322 316 308 298 292 284 272 259 251 245 237 229 223 217 213 213 218 222 227 226 216 197 184 162 138 128 122 118 118 116 121 128 127 129 133
48 46 53 48 41 28 7 344 342 348 349 348 346 339 329 325 314 305 298 290 276 263 256 251 244 234 226 220 216 215 220 226 229 230 227 215 201 180 156 143 134 130 128 124 125 130 136 141 147
50 47 58 52 45 23 346 334 342 349 351 347 345 338 331 329 319 308 298 291 280 266 260 253 246 237 227 221 219 219 223 228 231 231 232 225 214 196 177 163 154 147 137 130 128 134 142 149 157
51 55 63 60 49 4 331 332 341 347 348 344 340 333 328 330 321 311 302 293 283 274 264 253 244 237 229 224 220 221 224 229 232 233 230 226 220 211 197 177 165 157 147 137 133 144 151 149 155
51 55 57 63 53 335 327 334 342 344 341 340 336 330 331 326 320 317 309 299 288 277 267 255 243 238 231 225 219 220 225 231 234 233 229 228 226 222 212 190 173 165 159 150 138 150 161 158 163
43 59 57 33 22 325 327 332 339 337 337 337 329 327 329 326 322 319 311 302 292 279 264 253 244 238 233 227 225 224 227 231 231 232 231 232 231 230 225 209 192 179 167 158 151 157 173 175 185
36 62 63 35 340 311 315 326 331 335 333 329 327 321 323 329 327 320 312 305 296 282 268 256 245 237 232 229 227 228 227 229 228 231 233 233 233 236 235 224 213 207 198 173 161 170 196 202 211
45 72 89 97 301 299 307 319 322 326 325 321 321 318 325 334 329 320 313 306 298 282 271 260 247 238 231 230 230 230 226 228 228 230 231 233 233 235 234 228 224 226 218 205 183 176 216 233 228
57 85 76 54 293 286 295 307 315 322 322 320 321 321 328 329 325 318 311 303 298 288 271 260 250 242 234 231 231 231 225 226 229 230 232 233 233 234 234 232 232 232 228 220 205 209 238 248 236
54 71 29 325 278 279 290 304 316 319 318 317 318 319 326 323 322 317 310 302 295 287 277 266 250 241 235 233 231 230 224 225 228 229 231 231 232 233 234 234 237 237 233 226 221 227 244 250 244
330 295 273 266 276 286 296 303 310 315 316 316 316 324 326 324 320 316 308 300 293 286 281 268 254 243 239 235 230 229 228 225 226 228 229 230 232 232 231 234 233 236 236 230 231 231 236 241 242
309 296 274 274 285 298 305 303 302 303 310 315 318 324 325 324 322 315 306 300 291 282 277 267 254 246 241 237 233 232 228 224 227 228 228 230 230 226 226 229 230 232 229 228 232 231 229 229 232
299 303 297 292 295 304 308 309 304 300 312 318 321 322 323 325 323 317 309 303 293 284 277 268 260 249 239 237 234 230 225 224 225 225 223 225 227 227 226 227 226 223 225 227 236 229 225 229 230
295 293 292 288 292 305 310 306 295 298 317 319 321 323 323 322 324 320 312 305 293 286 279 269 264 252 241 235 229 226 222 218 220 217 219 223 227 226 225 222 215 220 228 230 230 224 224 219 197
300 296 292 297 304 306 306 303 303 311 322 321 320 322 324 324 323 321 316 309 300 289 279 269 259 250 239 229 225 223 219 216 214 213 217 220 224 226 224 214 217 222 225 223 216 203 201 185 176
306 302 304 305 296 298 305 304 307 317 322 320 320 323 326 328 327 323 321 313 303 287 273 270 258 246 234 227 224 224 217 212 209 210 214 217 219 220 217 219 223 219 217 213 196 181 180 174 166
307 308 307 292 287 289 295 297 305 312 314 317 320 323 328 330 328 324 322 316 307 287 266 268 263 245 235 226 219 218 215 210 210 212 213 214 216 217 218 220 216 211 208 205 191 180 169 161 152
295 293 286 281 281 278 284 291 296 306 311 317 320 324 329 331 329 325 323 319 312 287 265 266 265 248 230 218 217 216 211 209 210 211 214 216 215 213 217 219 212 206 204 199 190 184 176 164 156
269 260 261 265 268 273 284 288 291 293 305 315 319 325 328 331 331 329 328 324 314 290 271 266 262 243 224 218 217 213 207 209 211 211 212 213 212 214 218 221 213 207 206 204 200 199 195 188 189
271 264 261 262 263 272 282 284 283 291 300 311 317 324 328 330 332 331 327 327 317 300 286 273 258 235 222 216 213 209 208 209 211 210 213 213 213 216 217 217 213 211 211 211 210 208 204 205 209
267 264 262 262 269 271 279 281 286 288 296 306 316 324 329 330 331 333 331 330 322 308 291 280 254 232 216 208 207 207 210 211 213 213 213 212 214 214 212 213 215 214 214 215 216 215 214 215 218
265 264 265 264 267 270 272 279 290 292 295 310 319 323 326 331 331 334 335 330 322 310 298 281 255 233 219 212 208 210 210 209 213 215 214 213 214 213 213 214 215 216 216 218 220 222 224 226 233
257 255 259 262 264 263 262 272 283 292 299 308 320 323 327 329 330 331 333 332 324 315 299 282 254 230 220 212 211 215 214 214 216 217 217 216 215 215 216 218 219 220 221 223 225 228 233 238 245
257 253 256 260 263 265 265 264 270 283 298 313 317 317 323 324 326 328 330 330 328 317 309 287 251 233 221 215 214 216 216 218 219 219 217 216 218 219 219 222 224 225 226 227 230 233 238 245 252
255 255 254 264 271 271 260 252 258 274 293 306 309 315 320 321 324 325 330 328 328 325 321 292 251 238 229 218 214 213 215 216 217 214 215 218 218 220 221 224 226 227 229 231 235 239 243 249 254
241 246 248 253 267 277 278 262 238 260 285 299 303 311 317 320 324 326 330 330 330 329 325 309 255 240 227 217 213 212 214 212 211 213 216 215 217 220 223 227 229 230 232 236 239 243 248 254 258
234 238 246 259 270 285 295 298 285 269 287 297 304 311 316 319 325 327 329 332 336 332 323 316 278 242 227 221 218 213 210 210 212 214 213 213 218 223 227 228 231 234 237 240 243 247 253 257 261
238 231 238 242 255 265 273 278 266 261 277 287 302 308 312 316 324 325 326 331 337 339 329 312 290 244 231 221 212 209 209 209 212 212 212 215 220 223 224 229 235 239 241 243 247 251 257 261 265
251 237 230 239 245 256 269 274 277 272 268 285 297 302 304 313 318 321 322 329 339 343 340 317 290 254 230 220 215 212 211 212 212 213 216 220 224 226 231 235 242 243 245 248 252 256 260 264 267
241 246 242 241 241 246 266 280 281 280 284 291 296 298 299 306 310 315 317 320 329 335 338 334 319 276 233 225 221 218 219 218 216 216 220 224 227 231 236 243 246 249 251 254 257 260 264 268 271
Height
5888 5887 5887 5886 5885 5883 5884 5885 5883 5881 5880 5879 5878 5876 5874 5873 5873 5874 5871 5870 5871 5871 5872 5872 5874 5875 5877 5878 5879 5880 5881 5881 5882 5882 5882 5882 5882 5882 5882 5882 5882 5882 5882 5882 5882 5882 5883 5883 5883
5889 5888 5888 5887 5886 5885 5886 5886 5884 5882 5880 5879 5877 5876 5874 5872 5871 5871 5870 5870 5870 5870 5871 5872 5873 5874 5875 5877 5878 5879 5880 5881 5882 5882 5882 5882 5883 5883 5883 5882 5882 5882 5883 5883 5883 5883 5883 5883 5884
5890 5889 5888 5888 5887 5889 5889 5887 5884 5882 5880 5879 5877 5876 5874 5872 5871 5870 5870 5869 5869 5870 5870 5870 5871 5873 5874 5876 5877 5879 5880 5881 5882 5882 5882 5883 5883 5883 5883 5883 5883 5883 5883 5883 5883 5883 5884 5884 5884
5891 5890 5888 5888 5890 5892 5891 5888 5885 5883 5880 5879 5877 5875 5872 5871 5871 5870 5868 5868 5868 5868 5868 5869 5870 5871 5873 5875 5876 5878 5879 5881 5881 5882 5882 5882 5883 5883 5883 5883 5883 5883 5883 5883 5883 5883 5884 5884 5884
5891 5890 5889 5889 5891 5893 5891 5888 5885 5883 5881 5879 5877 5875 5872 5871 5870 5869 5867 5867 5867 5867 5867 5867 5868 5870 5871 5873 5875 5877 5878 5880 5881 5881 5882 5882 5883 5883 5883 5883 5883 5883 5883 5883 5883 5884 5884 5884 5884
5892 5890 5890 5891 5893 5894 5891 5888 5885 5883 5881 5879 5876 5873 5872 5871 5869 5868 5866 5866 5866 5866 5865 5866 5867 5868 5870 5872 5874 5875 5877 5878 5880 5881 5881 5882 5882 5883 5883 5883 5883 5883 5883 5883 5884 5884 5884 5884 5885
5892 5891 5890 5892 5895 5894 5892 5888 5886 5883 5881 5878 5876 5873 5870 5868 5867 5866 5865 5864 5864 5864 5864 5864 5865 5866 5868 5870 5872 5874 5876 5877 5878 5880 5880 5881 5882 5882 5882 5883 5883 5883 5883 5883 5884 5884 5884 5884 5885
5891 5891 5890 5892 5896 5895 5892 5888 5886 5883 5881 5878 5875 5871 5868 5866 5866 5865 5863 5862 5861 5862 5861 5862 5863 5864 5866 5867 5869 5871 5873 5875 5877 5878 5879 5880 5881 5881 5882 5882 5882 5883 5883 5883 5883 5884 5884 5884 5885
5891 5892 5891 5892 5894 5894 5891 5888 5885 5883 5880 5876 5873 5869 5867 5866 5865 5863 5861 5860 5859 5859 5858 5859 5860 5861 5863 5865 5867 5869 5871 5873 5875 5877 5878 5879 5880 5881 5881 5881 5882 5882 5883 5883 5883 5884 5884 5884 5885
5891 5891 5891 5893 5893 5891 5889 5886 5884 5881 5879 5875 5872 5868 5866 5864 5863 5861 5859 5857 5856 5856 5855 5856 5857 5859 5861 5862 5864 5866 5869 5871 5873 5875 5877 5878 5879 5880 5880 5881 5881 5882 5882 5883 5883 5884 5884 5884 5884
5890 5890 5890 5891 5890 5888 5886 5885 5883 5880 5878 5874 5870 5867 5865 5862 5860 5858 5856 5854 5853 5853 5852 5853 5853 5855 5857 5859 5861 5864 5866 5869 5871 5873 5875 5877 5878 5879 5879 5880 5881 5881 5882 5883 5883 5883 5884 5884 5884
5888 5888 5888 5888 5887 5886 5884 5882 5881 5879 5876 5873 5869 5866 5863 5860 5857 5854 5852 5851 5850 5849 5849 5850 5851 5852 5854 5856 5859 5861 5864 5866 5869 5871 5873 5875 5877 5878 5879 5880 5880 5881 5882 5882 5883 5883 5884 5884 5884
5886 5886 5886 5885 5884 5883 5882 5881 5879 5875 5873 5871 5868 5864 5860 5857 5854 5851 5849 5847 5846 5845 5845 5846 5847 5848 5850 5853 5855 5858 5861 5864 5867 5869 5871 5873 5875 5876 5878 5879 5880 5880 5881 5882 5883 5883 5883 5884 5884
5884 5884 5883 5882 5882 5881 5880 5879 5875 5870 5869 5868 5865 5862 5859 5855 5851 5847 5845 5844 5842 5842 5842 5843 5843 5844 5846 5849 5852 5855 5858 5862 5865 5867 5870 5872 5874 5875 5876 5878 5879 5880 5881 5881 5882 5882 5883 5884 5884
5881 5881 5881 5879 5879 5879 5879 5877 5873 5868 5867 5866 5863 5860 5857 5852 5848 5846 5844 5842 5840 5839 5839 5839 5839 5841 5843 5846 5849 5852 5856 5859 5862 5865 5868 5871 5873 5874 5876 5877 5878 5879 5880 5881 5882 5882 5883 5883 5884
5878 5879 5878 5878 5878 5878 5879 5876 5872 5868 5866 5864 5861 5857 5854 5851 5847 5844 5842 5840 5838 5836 5835 5836 5836 5838 5841 5844 5847 5850 5853 5857 5860 5863 5866 5869 5871 5873 5875 5876 5877 5878 5879 5880 5881 5882 5883 5883 5883
5876 5876 5877 5877 5876 5877 5877 5874 5871 5867 5865 5862 5859 5855 5851 5848 5845 5842 5840 5837 5835 5834 5833 5833 5834 5836 5838 5841 5845 5848 5852 5855 5859 5862 5865 5868 5870 5872 5874 5875 5876 5878 5879 5880 5881 5882 5882 5883 5883
5875 5876 5876 5876 5876 5876 5874 5871 5869 5866 5863 5860 5857 5853 5849 5846 5843 5840 5838 5835 5833 5832 5832 5832 5832 5833 5835 5839 5843 5846 5850 5853 5857 5860 5863 5866 5868 5871 5872 5874 5876 5877 5878 5879 5880 5881 5882 5882 5883
5872 5873 5874 5874 5874 5873 5871 5869 5866 5864 5861 5858 5855 5851 5848 5845 5842 5839 5836 5834 5832 5831 5831 5831 5831 5831 5834 5837 5841 5844 5848 5851 5855 5858 5861 5864 5867 5869 5871 5873 5875 5876 5878 5879 5880 5881 5881 5882 5883
5868 5869 5870 5871 5870 5870 5868 5866 5863 5860 5857 5856 5853 5850 5846 5843 5840 5838 5835 5833 5831 5830 5830 5830 5830 5831 5832 5835 5839 5842 5846 5849 5853 5856 5859 5862 5865 5867 5870 5872 5873 5875 5877 5878 5879 5880 5881 5882 5882
5865 5866 5867 5867 5866 5866 5865 5862 5859 5858 5854 5852 5850 5847 5844 5841 5839 5837 5835 5832 5830 5829 5829 5828 5829 5829 5831 5834 5837 5840 5844 5847 5851 5854 5857 5861 5863 5866 5868 5870 5872 5874 5876 5877 5878 5879 5880 5881 5882
5861 5862 5863 5863 5863 5862 5862 5858 5857 5854 5850 5847 5846 5845 5842 5840 5837 5835 5833 5831 5830 5829 5828 5827 5828 5829 5830 5833 5836 5839 5842 5846 5849 5852 5855 5858 5861 5864 5866 5868 5870 5873 5874 5876 5877 5878 5879 5880 5881
5857 5858 5859 5859 5859 5858 5858 5856 5854 5850 5847 5844 5843 5842 5841 5840 5837 5835 5833 5830 5828 5827 5827 5826 5826 5827 5829 5831 5834 5837 5840 5844 5847 5850 5853 5856 5859 5862 5864 5866 5869 5871 5873 5874 5876 5877 5878 5879 5880
5853 5854 5854 5854 5855 5854 5854 5853 5851 5848 5846 5844 5843 5842 5840 5839 5836 5834 5832 5829 5827 5826 5825 5824 5825 5826 5827 5829 5831 5834 5838 5842 5845 5847 5851 5854 5857 5860 5862 5864 5867 5869 5871 5872 5874 5875 5876 5877 5878
5850 5851 5851 5852 5852 5851 5848 5847 5848 5846 5846 5846 5844 5842 5840 5838 5835 5833 5831 5829 5827 5825 5824 5823 5823 5824 5825 5827 5829 5832 5835 5839 5842 5845 5848 5852 5855 5858 5860 5862 5864 5866 5868 5870 5871 5873 5874 5875 5876
5846 5848 5849 5850 5850 5846 5841 5839 5841 5844 5843 5843 5842 5840 5839 5837 5834 5831 5829 5827 5825 5824 5823 5822 5822 5822 5823 5825 5827 5830 5833 5836 5840 5843 5846 5849 5852 5855 5857 5860 5862 5864 5866 5867 5869 5870 5871 5872 5873
5841 5843 5847 5848 5846 5845 5842 5839 5836 5839 5840 5840 5839 5839 5837 5835 5833 5831 5829 5826 5825 5823 5822 5822 5821 5821 5822 5823 5825 5827 5831 5834 5837 5841 5844 5847 5850 5852 5855 5857 5859 5861 5863 5865 5866 5867 5868 5869 5870
5838 5840 5842 5843 5843 5843 5843 5839 5836 5833 5837 5837 5837 5836 5835 5834 5832 5830 5828 5826 5825 5823 5822 5821 5821 5821 5821 5822 5824 5826 5829 5832 5835 5839 5842 5845 5847 5850 5852 5854 5856 5858 5860 5861 5863 5864 5865 5866 5867
5835 5836 5837 5839 5840 5840 5839 5838 5833 5833 5833 5833 5833 5834 5834 5832 5831 5829 5828 5826 5824 5823 5822 5821 5821 5821 5821 5822 5823 5825 5828 5831 5833 5837 5840 5842 5845 5847 5849 5851 5853 5855 5857 5858 5859 5860 5861 5862 5862
5832 5833 5834 5835 5835 5836 5836 5836 5831 5829 5829 5829 5831 5832 5832 5831 5830 5828 5827 5826 5825 5823 5823 5822 5821 5821 5821 5821 5823 5824 5827 5829 5832 5835 5837 5840 5842 5844 5846 5848 5850 5852 5853 5854 5855 5856 5857 5857 5857